Regional Weather Roundup
Issued by NWS

Home | Current Version | Previous Version | Graphics & Text | Print | Product List | Glossary On
Versions: 1 2 3 4 5 6 7 8 9 10 11 12 13 14 15 16 17 18 19 20 21 22 23 24 25 26 27 28 29 30 31 32 33 34 35 36 37 38 39 40 41 42 43 44 45 46 47 48 49 50
000
ASUS43 KLSX 261807
RWRMO

WEATHER SUMMARY FOR MISSOURI
NATIONAL WEATHER SERVICE SPRINGFIELD MO
1200 PM CST SUN FEB 26 2017

NOTE: "FAIR" INDICATES FEW OR NO CLOUDS BELOW 12,000 FEET WITH NO
       SIGNIFICANT WEATHER AND/OR OBSTRUCTIONS TO VISIBILITY.
       CURRENT SKY AND/OR WEATHER CONDITIONS ARE NOT AVAILABLE FOR
       CHILLICOTHE AND FARMINGTON.

MOZ001>031-035>038-043-044-053-054-261900-
...NORTHERN AND WESTERN MISSOURI...

CITY           SKY/WX    TMP DP  RH WIND       PRES   REMARKS
KANSAS CTY INT MOSUNNY   44  29  55 S8        30.01F
6HR MIN TEMP:  35; 6HR MAX TEMP:  46; 6HR PCP: TRACE;

KANSAS C DTWN  CLOUDY    44  34  67 CALM      30.02F
6HR MIN TEMP:  36; 6HR MAX TEMP:  44; 6HR PCP: TRACE;

LEE`S SUMMIT   CLOUDY    45  29  53 S10       30.02F
6HR MIN TEMP:  34; 6HR MAX TEMP:  45; 6HR PCP: TRACE;

ST JOSEPH      SUNNY     49  32  52 SW15G22   29.99F
6HR MIN TEMP:  23; 6HR MAX TEMP:  50;

CHILLICOTHE      N/A     46  31  55 S12       30.03F
6HR MIN TEMP:  31; 6HR MAX TEMP:  46;

KIRKSVILLE     SUNNY     48  26  42 SW18G30   30.00F
6HR MIN TEMP:  32; 6HR MAX TEMP:  49;


$$
MOZ066>068-077>081-088>096-101>105-261900-
...SOUTHWEST MISSOURI...

CITY           SKY/WX    TMP DP  RH WIND       PRES   REMARKS
SPRINGFIELD    MIX PCPN  36  34  92 SE9       30.07F WCI  29
6HR MIN TEMP:  32; 6HR MAX TEMP:  40; 6HR PCP:  0.05;

JOPLIN         LGT RAIN  40  38  93 SE7       30.05F
6HR MIN TEMP:  35; 6HR MAX TEMP:  41; 6HR PCP:  0.07;

BRANSON        CLOUDY    46  23  39 SE7       30.08F

$$
MOZ032>034-039>042-045>050-055>058-069>072-261900-
...CENTRAL MISSOURI...

CITY           SKY/WX    TMP DP  RH WIND       PRES   REMARKS
COLUMBIA       CLOUDY    43  19  38 S10       30.07F
6HR MIN TEMP:  30; 6HR MAX TEMP:  43;

JEFFERSON CITY CLOUDY    44  16  32 S13       30.09F
6HR MIN TEMP:  31; 6HR MAX TEMP:  44;

ROLLA          CLOUDY    44  17  33 S16       30.08F
6HR MIN TEMP:  31; 6HR MAX TEMP:  44; 6HR PCP: TRACE;

SEDALIA        CLOUDY    45  21  38 S8        30.06F
6HR MIN TEMP:  37; 6HR MAX TEMP:  45;

WHITEMAN AFB   CLOUDY    43  26  50 S7        30.04F
WARRENSBURG    CLOUDY    41  28  60 CALM      30.05F
OSAGE BEACH    CLOUDY    45  19  35 S8        30.08F

$$
MOZ051-052-059>065-261900-
...EAST CENTRAL MISSOURI...

CITY           SKY/WX    TMP DP  RH WIND       PRES   REMARKS
ST LOUIS INTL  CLOUDY    43  14  31 S12G18    30.13F
6HR MIN TEMP:  32; 6HR MAX TEMP:  43;

SPIRIT OF STL  CLOUDY    43  15  32 S9        30.12F
6HR MIN TEMP:  31; 6HR MAX TEMP:  43;

ST CHARLES     CLOUDY    43  14  31 S14       30.13F
6HR MIN TEMP:  25; 6HR MAX TEMP:  44;


$$
MOZ072>076-082>087-097>100-106>115-261900-
...SOUTH CENTRAL AND SOUTHEAST MISSOURI...

CITY           SKY/WX    TMP DP  RH WIND       PRES   REMARKS
CAPE GIRARDEAU CLOUDY    48  19  31 S12       30.18F
6HR MIN TEMP:  24; 6HR MAX TEMP:  48;

FARMINGTON     CLOUDY    43  18  36 S12       30.14F
6HR MIN TEMP:  22; 6HR MAX TEMP:  43;

POPLAR BLUFF   CLOUDY    48  26  42 S10       30.17F
6HR MIN TEMP:  26; 6HR MAX TEMP:  48;

WEST PLAINS    CLOUDY    45  21  38 S9        30.12F
6HR MIN TEMP:  29; 6HR MAX TEMP:  45;


$$


USA.gov is the U.S. government's official web portal to all federal, state and local government web resources and services.